Location: Foulognes
(49.1413°N, 0.8183°W)
Time: 23:03:58
(UTC+00:00)

STARLINK-28 - Pass Details

Date: 21 October 2019
Orbit: 548 x 551 km, 53.0° (Epoch: 22 November)

Event Time Altitude Azimuth Distance (km) Brightness Sun altitude
Rises 19:07:05 0° 287° (WNW) 2,722 8.7 -21.1°
Reaches altitude 10° 19:09:22 10° 292° (WNW) 1,828 7.4 -21.4°
Maximum altitude 19:13:26 54° 10° (N) 676 4.0 -22.1°
Enters shadow 19:13:38 53° 22° (NNE) 681 3.9 -22.1°
